www.pogodaiklimat.ru

Погода и климат >> Архив погоды >> Россия >> Приморский край >> Посьет


АРХИВ ПОГОДЫ в Посьете

Время (UTC), дата Ветер
(напр.,м/с)
 
Видим.   Явления Облачность Т
(С)
Тd
(С)
f
(%)
Тe
(С)
Тes
(С)
Комфортность P
(гПа)
Po
(гПа)
Тmin
(С)
Tmax
(С)
R
(мм)
R24
(мм)
S
(см)
03 20.05 СЗ 1 20 км {дождь} 10/10 300 м
[St]
+14.0 +14.0 100 +14 +14 993.0 988.4
06 20.05 ЮЗ 1 20 км {дождь} 10/9 600 м
[Sc Ac trans Ci sp]
+15.7 +11.6 77 +16 +17 992.3 987.7
09 20.05 З 4 20 км 5/3 600 м
[Sc diur, vesp Ac cuf Ci sp]
+17.3 +9.0 58 +17 +18 992.5 987.9 +17.3 6
12 20.05 З 4
{13}
20 км ясно +14.7 +5.2 53 +14 +14 995.8 991.2
15 20.05 З 2
{11}
20 км ясно +11.7 +5.5 66 +11 +11 996.1 991.4
18 20.05 З 2 20 км 3/0
[Ac cast]
+10.7 +5.9 72 +10 +10 996.2 991.5
21 20.05 В 2 20 км 3/0
[Ac lent]
+10.1 +7.3 83 +9 +9 995.9 991.2 +9.8
00 21.05 ЮЗ 1 20 км 8/4 600 м
[Sc Ac trans Ci fib]
+15.0 +8.4 65 +16 +21 995.4 990.8
03 21.05 В 2 20 км в посл. час ливневой дождь 8/8 600 м
[Cb calv]
+16.4 +9.1 62 +17 +20 994.3 989.8
06 21.05 ЮВ 2
{11}
10 км слаб. ливневой дождь 10/10 600 м
[Cb cap]
+14.1 +8.3 68 +14 +14 994.9 990.3
09 21.05 З 1 20 км {ливн. осадки} 8/4 600 м
[Sc diur, vesp Ac lent Cc]
+15.4 +9.2 67 +16 +17 995.9 991.3 +19.9 2
12 21.05 З 5
{11}
20 км {ливн. осадки} 10/0
[Ac As]
+14.4 +7.3 62 +13 +13 997.5 992.9
15 21.05 З 1 20 км 6/0
[Ac trans]
+11.4 +7.8 79 +11 +11 997.8 993.2
18 21.05 З 1 20 км 8/0
[Ac trans]
+11.9 +7.6 75 +12 +12 997.0 992.3
21 21.05 В 2 20 км 8/0
[Ac trans]
+11.8 +8.4 80 +11 +11 996.6 992.0 +11.0
00 22.05 З 4 20 км 3/1 600 м
[Cu hum Cc]
+16.3 +8.5 60 +16 +22 997.7 993.1
03 22.05 З 6-12
{13}
20 км 8/8 600 м
[Sc]
+17.6 +6.1 47 +17 +18 998.3 993.7
06 22.05 З 7-15
{15}
20 км 8/8 600 м
[Sc]
+16.7 +6.6 51 +16 +16 999.0 994.4
09 22.05 З 3
{17}
20 км 8/8 600 м
[Sc]
+17.0 +5.7 47 +17 +17 999.9 995.3 +18.9
12 22.05 С 1 20 км 10/10 600 м
[Sc]
+16.4 +5.4 48 +17 +17 1001.6 997.0
15 22.05 ЮЗ 2 20 км 10/10 600 м
[Sc]
+13.6 +8.5 71 +13 +13 1002.6 997.9
18 22.05 ЮЗ 1 20 км 10/10 600 м
[Sc]
+12.4 +7.3 71 +13 +13 1002.3 997.6
21 22.05 СВ 3 20 км 4/0
[Ac lent]
+10.5 +7.8 83 +8 +9 1003.1 998.4 +10.3
00 23.05 В 2 20 км 8/4 600 м
[Sc Ac lent Ci sp]
+14.7 +8.8 68 +14 +19 1003.9 999.2
03 23.05 ЮВ 4 20 км 1/1 600 м
[Cu med, cong]
+17.7 +9.8 60 +17 +29 опасность
простуды
1004.6 1000.0
06 23.05 ЮВ 4 20 км 1/1 600 м
[Cu med, cong]
+18.9 +9.9 56 +20 +27 1004.4 999.8
09 23.05 ЮВ 4 20 км ясно +15.7 +7.8 59 +15 +16 1005.4 1000.7 +19.3
12 23.05 ЮВ 1 20 км ясно +13.8 +7.2 64 +14 +14 1007.8 1003.1
15 23.05 В 3 20 км ясно +11.2 +8.7 85 +9 +9 1008.2 1003.5
18 23.05 С 1 20 км ясно +10.0 +7.7 86 +10 +10 1008.8 1004.1
21 23.05 СЗ 2 20 км 3/0
[Ac lent]
+10.4 +7.8 84 +9 +10 1008.9 1004.2 +9.4
00 24.05 З 2 20 км ясно +16.4 +10.1 66 +17 +27 1009.2 1004.6
03 24.05 ЮВ 3 20 км 6/0
[Ci]
+18.5 +9.1 54 +19 +33 опасность
простуды
1008.8 1004.2
06 24.05 ЮВ 3 20 км 4/0
[Ac cast Cs]
+18.5 +9.8 57 +19 +27 1007.2 1002.6
09 24.05 В 3 20 км ясно +15.4 +11.4 77 +15 +16 1006.3 1001.7 +19.1
12 24.05 В 3 20 км ясно +13.7 +11.4 86 +13 +13 1007.1 1002.5
15 24.05 штиль 0 20 км ясно +12.6 +11.3 92 +12 +12 1006.4 1001.7
18 24.05 штиль 0 20 км ясно +11.9 +9.4 85 +11 +11 1006.3 1001.6
21 24.05 штиль 0 20 км 8/0
[Cs]
+11.8 +9.4 85 +11 +12 1006.9 1002.2 +10.6
00 25.05 штиль 0 20 км 8/0
[Cs]
+15.0 +11.8 81 +15 +27 опасность
простуды
1008.4 1003.8
03 25.05 З 1 20 км 8/0
[Cs]
+19.9 +13.4 66 +23 +42 комфорт 1007.9 1003.3
06 25.05 ЮВ 1 20 км 8/0
[Cs]
+23.1 +13.2 54 +26 +39 жарко 1007.4 1002.8
09 25.05 В 3 20 км 4/0
[Cc]
+18.3 +13.3 73 +19 +20 1006.9 1002.3 +23.7
12 25.05 В 2 20 км 5/0
[Cs]
+15.9 +12.8 82 +16 +16 1007.6 1003.0
15 25.05 С 1 20 км ясно +15.1 +14.0 93 +16 +16 1008.3 1003.7
18 25.05 СЗ 1 20 км ясно +14.0 +12.8 92 +14 +14 1008.4 1003.8
21 25.05 ЮЗ 2 20 км ясно +14.4 +12.5 88 +14 +15 1009.5 1004.9 +13.8
00 26.05 З 1 20 км ясно +20.3 +13.7 66 +24 +36 комфорт 1010.6 1006.0
03 26.05 В 1 20 км ясно +25.3 +13.7 49 +28 +50 жарко 1008.6 1004.1
06 26.05 В 3 20 км 8/0
[Cs]
+26.1 +10.1 37 +27 +36 жарко 1006.4 1002.0
09 26.05 В 5 20 км 8/0
[Cs]
+17.0 +13.4 79 +16 +17 1005.9 1001.3 +28.5
12 26.05 СВ 4 20 км 4/0
[Cs]
+14.6 +11.8 83 +13 +13 1006.8 1002.2
15 26.05 СВ 4 20 км 8/0
[Cs]
+13.8 +10.4 80 +12 +12 1006.1 1001.4
18 26.05 СВ 3 20 км 8/0
[Cs]
+13.7 +10.2 79 +13 +13 1005.9 1001.3
21 26.05 В 1 20 км 6/0
[Ac lent Cc]
+13.7 +11.0 84 +14 +15 1005.0 1000.3 +12.7
00 27.05 З 2 20 км 10/0
[Ac und]
+16.1 +12.5 79 +16 +19 1004.8 1000.1

 

Местоположение метеостанции Посьет (Приморский край, Россия): широта 42.65 долгота 130.80 высота над уровнем моря 39 м.

В архиве по умолчанию представлена погода в Посьете за последнюю неделю. Архивные данные за месяц целиком и за предыдущие месяцы, начиная с января 2011 года, Вы можете получить, выбрав интересующий диапазон дат из раскрывающегося списка и нажав кнопку "Ввод!".


*Определитесь, кто Вы:
робот инопланетянин человек

Внимание! Время в таблицах - всемирное. Для получения местного времени необходимо прибавить поправку, которая равна 10 ч.

Смотрите также архив погоды в соседних городах и на ближайших метеорологических станциях:

Погода в Гамове (Приморский край, Россия) (36 км)
Погода в Сонбонге (КНДР) (49 км)
Погода в Барабаше (Приморский край, Россия) (78 км)
Погода на Мысе Назимова (Приморский край, Россия) (100 км)
Погода в Владивостоке (Приморский край, Россия) (104 км)
Погода в Яньцзи (Гирин, Китай) (109 км)
Погода в Чхонджине (КНДР) (127 км)
Погода в Полтавке (Приморский край, Россия) (159 км)
Погода в Тимирязевском (Приморский край, Россия) (163 км)
Погода в Многоудобном (Приморский край, Россия) (164 км)

Пояснения к столбцам:

Ветер - указаны скорость ветра в м/с - средняя за 10 мин, порывы в срок и между сроками (в фигурных скобках) и направление, откуда дует ветер: С - северный, СВ - северо-восточный, В - восточный, ЮВ - юго-восточный, Ю - южный, ЮЗ - юго-западный, З - западный, СЗ - северо-западный.
Видимость - горизонтальная дальность видимости в метрах или километрах. При видимости от 1 до 10 км при отсутствии осадков обычно наблюдается дымка, при ухудшении видимости до 1 км и менее - туман. В сухую погоду видимость может ухудшаться дымом, пылью или мглою.
Явления - указаны атмосферные явления, наблюдавшиеся в срок или в последний час перед сроком; фигурными скобками обозначены явления, наблюдавшиеся между сроками (за 1-3 часа до срока); квадратными скобками обозначены град или гололедные отложения с указанием их диаметра в мм.
Облачность - указаны через наклонную черту общая и нижняя облачность в баллах и высота нижней границы облаков в метрах; квадратными скобками обозначены формы облаков: Ci - перистые, Cs - перисто-слоистые, Cc - перисто-кучевые, Ac - высококучевые, As - высокослоистые, Sc - слоисто-кучевые, Ns - слоисто-дождевые, Cu - кучевые, Cb - кучево-дождевые. Подробнее классификацию облаков см. в Атласе облаков (PDF).
T - Температура воздуха - температура, измеренная на высоте 2 м над землей.
Td - Температура точки росы - температура, при понижении до которой содержащийся в воздухе водяной пар достигнет насыщения.
f - Относительная влажность воздуха - влажноcть воздуха, измеренная на высоте 2 м над землей.
Te - Эффективная температура - температура, которую ощущает одетый по сезону человек в тени. Характеристика душности погоды. При расчете учитывается влияние влажности воздуха и скорости ветра на теплоощущения человека.
Tes - Эффективная температура на солнце - температура, которую ощущает человек, с поправкой на солнечный нагрев. Характеристика знойности погоды. Зависит от высоты солнца над горизонтом, облачности и скорости ветра. Ночью, в пасмурную погоду, а также при ветре 12 м/с и более поправка равна нулю.
P - Атмосферное давление - приведенное к уровню моря атмосферное давление.
Po - Атмосферное давление - измеренное на уровне метеостанции атмосферное давление.
Tmin - Минимальная температура - минимум температуры воздуха на высоте 2 м над землей.
Tmax - Максимальная температура - максимум температуры воздуха на высоте 2 м над землей.
R - Количество осадков - Количество выпавших осадков за период времени, мм. При наведении курсора мыши на число - период времени, за который выпало указанное количество осадков.
R24 - Количество осадков - Количество выпавших осадков за 24 часа, мм.
S - Снежный покров - Высота снежного покрова, см. При наведении курсора мыши на число - состояние снежного покрова и степень покрытия местности в баллах.